Simultaneous Nadir Overpasses (SNOs) Predictions

Prediction of SNOs between LANDSAT-8 and METOP-A Satellite Orbit:

Table of predicted SNOs for the next 14.0 days since TLE Epoch: 3/23/2019
Index Date (LANDSAT-8) Time (LANDSAT-8) Lat,Lon (LANDSAT-8) SZA (LANDSAT-8 ) Date (METOP-A) Time (METOP-A) Lat,Lon (METOP-A) SZA (METOP-A ) Distance(km) Time Diff (sec)
1 03/24/2019 08:38:44 -81.45, -84.41 97.57 03/24/2019 08:37:56 -81.45, -84.46 97.59 0.75 48
2 03/24/2019 09:28:10 81.45, 83.28 82.43 03/24/2019 09:28:36 81.45, 83.21 82.44 1.19 26
3 03/27/2019 04:12:59 -81.46, -17.80 98.62 03/27/2019 04:12:09 -81.45, -17.68 98.63 2.06 50
4 03/27/2019 05:02:25 81.46, 149.87 81.38 03/27/2019 05:02:49 81.45, 149.94 81.39 1.32 24
5 03/29/2019 23:47:14 -81.45, 48.50 99.71 03/29/2019 23:46:22 -81.45, 48.67 99.71 2.93 52
6 03/30/2019 00:36:40 81.45,-143.85 80.28 03/30/2019 00:37:02 81.45,-143.75 80.31 1.75 22
7 04/01/2019 19:21:30 -81.45, 114.88 100.78 04/01/2019 19:20:36 -81.45, 115.01 100.79 2.23 54
8 04/01/2019 20:10:56 81.45, -77.49 79.21 04/01/2019 20:11:16 81.45, -77.45 79.23 0.73 20
9 04/04/2019 14:55:46 -81.45,-178.65 101.83 04/04/2019 14:54:50 -81.45,-178.66 101.85 0.17 56




NCC Satellite Simultaneous Nadir Overpasses (SNOs) Prediction Service
